Regional Weather Roundup
Issued by NWS

Home | Current Version | Previous Version | Graphics & Text | Print | Product List | Glossary On
Versions: 1 2 3 4 5 6 7 8 9 10 11 12 13 14 15 16 17 18 19 20 21 22 23 24 25 26 27
000
ASUS45 KCYS 300410
RWRWY

WYOMING REGIONAL WEATHER ROUNDUP
NATIONAL WEATHER SERVICE CHEYENNE WY
1000 PM MDT MON AUG 29 2016

NOTE:  "FAIR" INDICATES FEW OR NO CLOUDS BELOW 12,000 FEET
WITH NO SIGNIFICANT WEATHER AND/OR OBSTRUCTIONS TO VISIBILITY.

WYZ001-300500-
YELLOWSTONE NATIONAL PARK

CITY           SKY/WX    TMP DP  RH WIND       PRES   REMARKS
LK YELLOWSTONE   N/A     54  31  41 N3        30.47R
W YELLOWSTONE  NOT AVBL

$$
WYZ002>013-054>058-071-098>099-300500-
NORTHERN WYOMING

CITY           SKY/WX    TMP DP  RH WIND       PRES   REMARKS
JACKSON        FAIR      64  30  27 NE3       30.34R
CODY           FAIR      72  37  28 CALM      30.23S
GREYBULL       FAIR      75  39  27 E3        30.15S
WORLAND        FAIR      73  33  23 SE10      30.17S
SHERIDAN       FAIR      71  47  42 SE3       30.20S
BUFFALO        FAIR      69  38  32 SW9       30.29R
GILLETTE       FAIR      72  50  45 S14       30.26R
HULETT         FAIR      70  52  52 SE8       30.29S
NEWCASTLE      FAIR      70  50  49 E13G18    30.29R

$$
WYZ014>020-022>026-101>103-300500-
CENTRAL WYOMING

CITY           SKY/WX    TMP DP  RH WIND       PRES   REMARKS
BIG PINEY      FAIR      63  30  28 W3        30.39R
PINEDALE       FAIR      61  30  31 SE6       30.40R
DUBOIS         FAIR      61  28  29 W5        30.40S
LANDER         FAIR      69  32  25 CALM      30.29S
RIVERTON       FAIR      70  31  23 E6        30.28R
CASPER         FAIR      68  41  37 E9        30.32R
DOUGLAS        FAIR      62  46  55 SE8       30.32R

$$
WYZ021-027>030-104>119-300500-
SOUTHERN WYOMING

CITY           SKY/WX    TMP DP  RH WIND       PRES   REMARKS
EVANSTON       FAIR      68  20  16 E6        30.36R
FORT BRIDGER   FAIR      72  19  13 NE6       30.38S
ROCK SPRINGS   FAIR      69  30  23 SE13      30.36R
DIXON          FAIR      57  34  41 E7        30.39R
RAWLINS        FAIR      61  29  29 E10       30.41R
SARATOGA       FAIR      55  34  44 SE5       30.43S
LARAMIE        FAIR      57  40  52 E6        30.45S
CHEYENNE       FAIR      61  45  55 W3        30.39S
TORRINGTON     FAIR      64  59  83 E7        30.27R
PINE BLUFFS    FAIR      59  46  63 SW6       30.35R

$$




USA.gov is the U.S. government's official web portal to all federal, state and local government web resources and services.